YAOGAN 10               
1 36834U 10038A   19265.10452918  .00000024  00000-0  98645-5 0  9992
2 36834  97.9705 264.8121 0001365  79.4385 280.6988 14.80931948492865
CZ-4C DEB               
1 37567U 10038C   19263.92694653  .00000378  00000-0  73695-4 0  9997
2 37567  97.9249 154.5214 0145426 223.6916 195.0715 14.62279213480189
CZ-4C DEB               
1 37568U 10038D   19264.46302617  .00000261  00000-0  65641-4 0  9997
2 37568  97.8194  82.1835 0185339  47.0547 314.6027 14.48750284477433
CZ-4C DEB               
1 37569U 10038E   19263.51171294  .00000380  00000-0  80724-4 0  9999
2 37569  97.7565  98.8328 0159984 274.8234  83.4715 14.57013630478215
CZ-4C DEB               
1 37570U 10038F   19263.68792331  .00000248  00000-0  62289-4 0  9999
2 37570  97.7983  66.4376 0181621  19.6662 341.1421 14.49753653479685